Location: Trebic
(49.2170°N, 15.8830°E)
Time: 09:23:57
(UTC+02:00)

Transit 2A Rocket - Pass Details

Date: 29 July 2019
Orbit: 590 x 913 km, 66.7° (Epoch: 21 August)

Event Time Altitude Azimuth Distance (km) Brightness Sun altitude
Rises 01:40:42 0° 191° (S) 3,510 - -21.4°
Reaches altitude 10° 01:43:22 10° 185° (S) 2,552 - -21.3°
Exits shadow 01:47:20 35° 153° (SSE) 1,375 5.9 -21.2°
Maximum altitude 01:48:54 42° 116° (ESE) 1,205 5.8 -21.2°
Drops below altitude 10° 01:54:07 10° 47° (NE) 2,407 8.3 -21.0°
Sets 01:56:34 0° 41° (NE) 3,291 9.3 -20.9°
